Skip to main content.
Our real time weather data display below is updated continuously via our 24/7 live data feed.
 TIME   TEMPERATURE   WINDSPEED   DIRECTION   HUMIDITY   BAROMETER   RAINFALL 
9:05 26.0°C (78.8°F) 3.7 kmh (2.3 mph) 54% 1011.9hPa (29.88 inHg) 0.0mm (0.00 in.)
8:05 27.0°C (80.6 °F) 5.6 kmh (3.5 mph) 50% 1011.9hPa (29.88 inHg) 0.0mm (0.00 in.)
7:05 29.0°C (84.2 °F) 13.0 kmh (8.1 mph) 42% 1011.9hPa (29.88 inHg) 0.0mm (0.00 in.)
6:05 30.0°C (86.0 °F) 13.0 kmh (8.1 mph) 37% 1011.9hPa (29.88 inHg) 0.0mm (0.00 in.)
5:05 31.0°C (87.8 °F) 13.0 kmh (8.1 mph) 31% 1011.9hPa (29.88 inHg) 0.0mm (0.00 in.)
3:53 30.0°C (86.0 °F) 14.8 kmh (9.2 mph) 37% 1012.9hPa (29.91 inHg) 0.0mm (0.00 in.)
2:53 31.0°C (87.8 °F) 13.0 kmh (8.1 mph) 37% 1012.9hPa (29.91 inHg) 0.0mm (0.00 in.)
1:53 31.0°C (87.8 °F) 14.8 kmh (9.2 mph) 35% 1012.9hPa (29.91 inHg) 0.0mm (0.00 in.)
12:53 30.0°C (86.0 °F) 18.5 kmh (11.5 mph) 40% 1012.9hPa (29.91 inHg) 0.0mm (0.00 in.)
11:53 30.0°C (86.0 °F) 9.3 kmh (5.8 mph) 42% 1012.9hPa (29.91 inHg) 0.0mm (0.00 in.)
10:53 28.0°C (82.4 °F) 14.8 kmh (9.2 mph) 54% 1012.9hPa (29.91 inHg) 0.0mm (0.00 in.)
9:53 28.0°C (82.4 °F) 11.1 kmh (6.9 mph) 54% 1012.9hPa (29.91 inHg) 0.0mm (0.00 in.)
8:53 27.0°C (80.6 °F) 7.4 kmh (4.6 mph) 54% 1011.9hPa (29.88 inHg) 0.0mm (0.00 in.)
7:53 25.0°C (77.0 °F) 3.7 kmh (2.3 mph) 61% 1012.9hPa (29.91 inHg) 0.0mm (0.00 in.)
6:53 23.0°C (73.4 °F) 5.6 kmh (3.5 mph) 68% 1011.9hPa (29.88 inHg) 0.0mm (0.00 in.)
5:53 23.0°C (73.4 °F) 7.4 kmh (4.6 mph) 68% 1011.9hPa (29.88 inHg) 0.0mm (0.00 in.)
4:53 25.0°C (77.0 °F) 7.4 kmh (4.6 mph) 61% 1011.9hPa (29.88 inHg) 0.0mm (0.00 in.)
3:53 24.0°C (75.2 °F) 7.4 kmh (4.6 mph) 57% 1011.9hPa (29.88 inHg) 0.0mm (0.00 in.)
2:53 24.0°C (75.2 °F) 5.6 kmh (3.5 mph) 60% 1011.9hPa (29.88 inHg) 0.0mm (0.00 in.)
1:53 24.0°C (75.2 °F) 3.7 kmh (2.3 mph) 64% 1012.9hPa (29.91 inHg) 0.0mm (0.00 in.)
12:53 25.0°C (77.0 °F) 7.4 kmh (4.6 mph) 65% 1012.9hPa (29.91 inHg) 0.0mm (0.00 in.)
11:53 26.0°C (78.8 °F) 5.6 kmh (3.5 mph) 69% 1012.9hPa (29.91 inHg) 0.0mm (0.00 in.)
10:53 26.0°C (78.8 °F) 5.6 kmh (3.5 mph) 54% 1012.9hPa (29.91 inHg) 0.0mm (0.00 in.)
9:53 27.0°C (80.6 °F) 5.6 kmh (3.5 mph) 47% 1011.9hPa (29.88 inHg) 0.0mm (0.00 in.)